Clarksville, TN

7:53 AM CDT on April 24, 2017 (GMT -0500)
Outlaw

Weather History for KCKV - January, 2012

Change the Weather History Date:

Tuesday, January 17, 2012

  Actual Average Record
Temperature  
Mean Temperature 49 °F 36 °F  
Max Temperature 67 °F 45 °F 69 °F (1949)
Min Temperature 30 °F 26 °F -10 °F (1977)
Degree Days  
Heating Degree Days 16    
Month to date heating degree days 413  
Since 1 July heating degree days 1798  
Cooling Degree Days 0    
Month to date cooling degree days 0  
Year to date cooling degree days  
Moisture  
Dew Point 46 °F    
Average Humidity 71    
Maximum Humidity 78    
Minimum Humidity 63    
Precipitation  
Precipitation 0.30 in 0.11 in 1.27 in (1990)
Month to date precipitation 1.36 1.83  
Year to date precipitation 1.83  
Sea Level Pressure  
Sea Level Pressure 29.96 in    
Wind  
Wind Speed 18 mph (WNW)    
Max Wind Speed 29 mph    
Max Gust Speed 36 mph    
Visibility 9 miles    
Events Fog , Rain , Thunderstorm    
T = Trace of Precipitation, MM = Missing Value Source: NWS Daily Summary

Daily Weather History Graph

Daily Weather History Graph

Search for Another Location

Airport or City:

Trip Planner

Search our weather history database for the weather conditions in past years. The results will help you decide how hot, cold, wet, or windy it might be!

Date:

Astronomy

Jan. 17, 2012 Rise Set
Actual Time 7:00 AM CST 4:59 PM CST
Civil Twilight 6:32 AM CST 5:27 PM CST
Nautical Twilight 6:00 AM CST 5:58 PM CST
Astronomical Twilight 5:29 AM CST 6:29 PM CST
Moon 1:20 AM CST (1/17) 11:51 AM CST (1/17)
Length of Visible Light 10h 54m
Length of Day
9h 58m
Waning Crescent, 35% of the Moon is Illuminated
Jan 17
Waning Crescent
Jan 23
New
Jan 30
First Quarter
Feb 7
Full
Feb 14
Last Quarter

Hourly Weather History & Observations

Time (CST) Temp. Windchill Dew Point Humidity Pressure Visibility Wind Dir Wind Speed Gust Speed Precip Events Conditions
12:52 AM 60.1 °F - 48.9 °F 67% 29.93 in 10.0 mi South 16.1 mph 25.3 mph N/A   Overcast
1:52 AM 59.0 °F - 50.0 °F 72% 29.91 in 10.0 mi South 19.6 mph 28.8 mph 0.00 in Rain Light Rain
2:52 AM 60.1 °F - 52.0 °F 75% 29.88 in 10.0 mi SSW 25.3 mph 35.7 mph 0.00 in   Mostly Cloudy
3:28 AM 60.8 °F - 53.6 °F 77% 29.88 in 10.0 mi SSW 20.7 mph 27.6 mph N/A   Overcast
3:52 AM 61.0 °F - 53.1 °F 75% 29.88 in 10.0 mi SSW 23.0 mph 29.9 mph N/A   Overcast
4:52 AM 62.1 °F - 54.0 °F 75% 29.86 in 10.0 mi SSW 18.4 mph 26.5 mph 0.01 in   Overcast
5:52 AM 62.1 °F - 55.0 °F 78% 29.86 in 10.0 mi SSW 18.4 mph 26.5 mph N/A   Overcast
6:52 AM 62.1 °F - 55.0 °F 78% 29.85 in 10.0 mi SSW 19.6 mph 35.7 mph N/A   Overcast
7:52 AM 63.0 °F - 55.9 °F 78% 29.85 in 10.0 mi SSW 19.6 mph 33.4 mph N/A   Overcast
8:52 AM 64.0 °F - 57.0 °F 78% 29.85 in 10.0 mi SSW 20.7 mph 27.6 mph N/A   Overcast
9:52 AM 64.9 °F - 57.0 °F 75% 29.84 in 10.0 mi SSW 24.2 mph 32.2 mph N/A   Overcast
10:49 AM 66.2 °F - 57.2 °F 73% 29.83 in 10.0 mi SW 20.7 mph 28.8 mph N/A   Overcast
10:52 AM 66.9 °F - 57.9 °F 73% 29.81 in 10.0 mi SW 18.4 mph 28.8 mph N/A   Overcast
11:21 AM 66.2 °F - 57.2 °F 73% 29.82 in 7.0 mi SW 20.7 mph 32.2 mph 0.01 in Rain , Thunderstorm Light Rain
11:32 AM 64.4 °F - 59.0 °F 83% 29.83 in 1.2 mi NW 24.2 mph 33.4 mph 0.13 in Rain , Thunderstorm Heavy Thunderstorms and Rain
11:35 AM 62.6 °F - 59.0 °F 88% 29.85 in 0.5 mi NW 27.6 mph 35.7 mph 0.28 in Fog , Rain , Thunderstorm Heavy Thunderstorms and Rain
11:43 AM 59.0 °F - 55.4 °F 88% 29.85 in 1.2 mi WNW 20.7 mph 32.2 mph 0.29 in Rain , Thunderstorm Light Thunderstorms and Rain
11:45 AM 59.0 °F - 55.4 °F 88% 29.86 in 5.0 mi WNW 15.0 mph 29.9 mph 0.29 in Rain , Thunderstorm Light Thunderstorms and Rain
11:52 AM 59.0 °F - 55.0 °F 87% 29.86 in 10.0 mi WNW 13.8 mph - 0.29 in Thunderstorm Overcast
12:02 PM 57.2 °F - 55.4 °F 94% 29.87 in 10.0 mi WNW 16.1 mph 21.9 mph N/A Thunderstorm Overcast
12:05 PM 57.2 °F - 55.4 °F 94% 29.86 in 10.0 mi WNW 11.5 mph 21.9 mph N/A   Overcast
12:16 PM 59.0 °F - 55.4 °F 88% 29.87 in 10.0 mi WNW 13.8 mph - N/A   Overcast
12:34 PM 57.2 °F - 53.6 °F 88% 29.87 in 10.0 mi WNW 13.8 mph 21.9 mph N/A   Overcast
12:52 PM 57.9 °F - 54.0 °F 87% 29.87 in 10.0 mi NW 18.4 mph 26.5 mph N/A   Overcast
1:52 PM 55.9 °F - 46.9 °F 72% 29.90 in 10.0 mi NNW 20.7 mph 28.8 mph N/A   Scattered Clouds
2:27 PM 50.0 °F - 39.2 °F 66% 29.95 in 10.0 mi NNW 21.9 mph 34.5 mph N/A   Mostly Cloudy
2:47 PM 48.2 °F - 39.2 °F 71% 29.97 in 10.0 mi NNW 19.6 mph 31.1 mph N/A   Overcast
2:52 PM 48.0 °F - 39.0 °F 71% 29.98 in 10.0 mi NNW 25.3 mph 34.5 mph N/A   Overcast
3:37 PM 46.4 °F 39.0 °F 37.4 °F 71% 30.02 in 9.0 mi NNW 19.6 mph 28.8 mph N/A   Overcast
3:52 PM 45.0 °F 36.9 °F 35.1 °F 68% 30.03 in 10.0 mi NNW 20.7 mph 28.8 mph N/A   Mostly Cloudy
4:39 PM 42.8 °F 33.5 °F 33.8 °F 70% 30.08 in 10.0 mi NNW 23.0 mph 28.8 mph N/A   Overcast
4:52 PM 41.0 °F 31.9 °F 33.1 °F 73% 30.09 in 10.0 mi NNW 19.6 mph - N/A   Mostly Cloudy
5:52 PM 37.0 °F 26.2 °F 28.9 °F 73% 30.15 in 10.0 mi NNW 21.9 mph - N/A   Mostly Cloudy
6:52 PM 35.1 °F 26.4 °F 27.0 °F 72% 30.19 in 10.0 mi North 12.7 mph - N/A   Mostly Cloudy
7:52 PM 35.1 °F 25.9 °F 26.1 °F 70% 30.22 in 10.0 mi NNW 13.8 mph 21.9 mph N/A   Overcast
8:52 PM 32.0 °F 22.1 °F 25.0 °F 75% 30.25 in 10.0 mi NNW 13.8 mph - N/A   Scattered Clouds
9:52 PM 33.1 °F 23.4 °F 24.1 °F 70% 30.26 in 10.0 mi NW 13.8 mph - N/A   Overcast
10:52 PM 32.0 °F 22.5 °F 21.9 °F 66% 30.27 in 10.0 mi NNW 12.7 mph - N/A   Overcast
11:52 PM 30.0 °F 20.0 °F 21.9 °F 72% 30.28 in 10.0 mi NNW 12.7 mph - N/A   Mostly Cloudy